This is the latest recevied weather packets stored in our database for station/object DB0MOD. If no packets are shown the sender has not sent any weather packets the latest 1 day(s).
| Time | Temp. | Humidity | Pressure | Rain* | Wind** | Luminosity | Snow |
|---|---|---|---|---|---|---|---|
| 1778090340 | 6.11° C | 10% | 1008.5 hPa | 0 mm | - | - | - |
| 1778090040 | 5.56° C | 10% | 1008.3 hPa | 0 mm | - | - | - |
| 1778089740 | 5.56° C | 10% | 1008.3 hPa | 0 mm | - | - | - |
| 1778089440 | 5.56° C | 10% | 1008 hPa | 0 mm | - | - | - |
| 1778089140 | 5.56° C | 10% | 1007.9 hPa | 0 mm | - | - | - |
| 1778088840 | 6.11° C | 10% | 1008 hPa | 0 mm | - | - | - |
| 1778088540 | 6.11° C | 10% | 1007.7 hPa | 0 mm | - | - | - |
| 1778088240 | 6.11° C | 10% | 1007.7 hPa | 0 mm | - | - | - |
| 1778087940 | 6.11° C | 10% | 1007.7 hPa | 0 mm | - | - | - |
| 1778087640 | 6.11° C | 10% | 1007.6 hPa | 0 mm | - | - | - |
| 1778086440 | 7.78° C | 10% | 1007.1 hPa | 0 mm | - | - | - |
| 1778085840 | 7.78° C | 10% | 1007.2 hPa | 0 mm | - | - | - |
| 1778085240 | 7.22° C | 10% | 1007.1 hPa | 0 mm | - | - | - |
| 1778084940 | 7.22° C | 10% | 1007.1 hPa | 0 mm | - | - | - |
| 1778084640 | 7.22° C | 10% | 1006.9 hPa | 0 mm | - | - | - |
| 1778084040 | 7.78° C | 10% | 1006.9 hPa | 0 mm | - | - | - |
| 1778081640 | 8.89° C | 10% | 1006.8 hPa | 0 mm | - | - | - |
| 1778070841 | 14.44° C | 24% | 1006 hPa | 0 mm | - | - | - |
| 1778066041 | 17.78° C | 44% | 1006.6 hPa | 0 mm | - | - | - |
| 1778065741 | 18.33° C | 44% | 1006.6 hPa | 0 mm | - | - | - |
| 1778065441 | 18.89° C | 45% | 1006.7 hPa | 0 mm | - | - | - |
| 1778064841 | 19.44° C | 45% | 1006.7 hPa | 0 mm | - | - | - |
| 1778064541 | 20° C | 45% | 1006.5 hPa | 0 mm | - | - | - |
| 1778064241 | 20° C | 45% | 1006.6 hPa | 0 mm | - | - | - |
| 1778063941 | 20.56° C | 45% | 1006.5 hPa | 0 mm | - | - | - |
* Rain latest hour (hover to see other rain measurements)
** Current wind speed in m/s (hover to see current wind gust speed)